Flag for France Weather past 2 weeks in Amsterdam Island, French Southern Territories, France

Now
49 °F

Cool.


Feels Like: 44 °F
Forecast: 49 / 54 °F
Wind: 14 mph from Southwest

Location: Martin De Vivies Ile Amsterdam

Current Time: Sep 24, 2014 at 10:02:09 AM

Latest Report: Sep 24, 2014 at 9:00 AM


Visibility: N/A

Pressure: 30.13 "Hg

Humidity: 69%

Dew point: 40 °F

Location of Amsterdam IslandLocation

Historic Weather in Amsterdam Island — Graph

°F

Amsterdam Island temperature yesterday

Maximum temperature yesterday: 57 °F (at 9:00 AM)
Minimum temperature yesterday: 50 °F (at 12:00 AM)
Average temperature yesterday: 54 °F

Past Weeks' High & Low Weather Summary

 TemperatureHumidityPressure
High59 °F (Sep 15, 2:00 PM)96% (Sep 17, 9:00 AM)30.32 "Hg (Sep 17, 9:00 AM)
Low41 °F (Sep 19, 7:00 AM)46% (Sep 12, 12:00 PM)29.41 "Hg (Sep 11, 9:00 PM)
Average52 °F79%29.86 "Hg
* Reported Sep 9 9:00 AM — Sep 24 9:00 AM, Amsterdam Island, Weather by CustomWeather, © 2014

Note: Actual official high and low records may vary slightly from our data, if they occured in-between our weather recording intervals... More about our weather records

Advertising

Amsterdam Island weather history for previous 24 hours

 ConditionsComfort  
Time TempWeatherWind HumidityBarometerVisibility
9:00 AM
Sep 24
49 °FCool.14 mph69%30.13 "HgN/A
8:00 AM48 °FCool.13 mph71%30.13 "HgN/A
7:00 AM47 °FCool.10 mph69%30.11 "HgN/A
6:00 AM46 °FCool.7 mph69%30.09 "HgN/A
5:00 AM47 °FCool.3 mph74%30.06 "HgN/A
4:00 AM47 °FCool.12 mph85%30.03 "HgN/A
3:00 AM47 °FCool.16 mph86%30.00 "HgN/A
2:00 AM48 °FCool.16 mph86%29.97 "HgN/A
1:00 AM49 °FCool.23 mph87%29.93 "HgN/A
12:00 AM50 °FCool.24 mph86%29.88 "HgN/A
11:00 PM
Sep 23
52 °FCool.22 mph80%29.83 "HgN/A
10:00 PM52 °FCool.21 mph79%29.79 "HgN/A
9:00 PM53 °FCool.18 mph82%29.76 "HgN/A
8:00 PM52 °FCool.15 mph88%29.73 "HgN/A
7:00 PM52 °FCool.16 mph90%29.70 "HgN/A
6:00 PM52 °FCool.21 mph92%29.67 "HgN/A
5:00 PM54 °FCool.22 mph89%29.67 "HgN/A
4:00 PM55 °FCool.25 mph80%29.69 "HgN/A
3:00 PM56 °FCool.24 mph74%29.71 "HgN/A
2:00 PM57 °FCool.21 mph86%29.72 "HgN/A
1:00 PM55 °FCool.20 mph95%29.75 "HgN/A
12:00 PM56 °FCool.24 mph91%29.78 "HgN/A
11:00 AM56 °FCool.18 mph90%29.82 "HgN/A
10:00 AM56 °FCool.15 mph88%29.84 "HgN/A
Weather by CustomWeather, © 2014

See weather overviewHow to use our weather pages